#datetime,building,power
2022-08-19T00:00:00,pst,13.56
2022-08-19T00:01:00,pst,13.49
2022-08-19T00:02:00,pst,13.54
2022-08-19T00:03:00,pst,13.54
2022-08-19T00:04:00,pst,13.51
2022-08-19T00:05:00,pst,13.46
2022-08-19T00:06:00,pst,13.53
2022-08-19T00:07:00,pst,13.42
2022-08-19T00:08:00,pst,13.48
2022-08-19T00:09:00,pst,13.51
2022-08-19T00:10:00,pst,13.55
2022-08-19T00:11:00,pst,13.65
2022-08-19T00:12:00,pst,13.77
2022-08-19T00:13:00,pst,13.76
2022-08-19T00:14:00,pst,13.77
2022-08-19T00:15:00,pst,13.76
2022-08-19T00:16:00,pst,13.77
2022-08-19T00:17:00,pst,13.40
2022-08-19T00:18:00,pst,13.40
2022-08-19T00:19:00,pst,13.36
2022-08-19T00:20:00,pst,13.34
2022-08-19T00:21:00,pst,13.36
2022-08-19T00:22:00,pst,13.38
2022-08-19T00:23:00,pst,13.37
2022-08-19T00:24:00,pst,13.36
2022-08-19T00:25:00,pst,13.41
2022-08-19T00:26:00,pst,13.37
2022-08-19T00:27:00,pst,13.38
2022-08-19T00:28:00,pst,13.43
2022-08-19T00:29:00,pst,13.49
2022-08-19T00:30:00,pst,13.48
2022-08-19T00:31:00,pst,13.55
2022-08-19T00:32:00,pst,13.57
2022-08-19T00:33:00,pst,13.47
2022-08-19T00:34:00,pst,13.48
2022-08-19T00:35:00,pst,13.47
2022-08-19T00:36:00,pst,13.47
2022-08-19T00:37:00,pst,13.47
2022-08-19T00:38:00,pst,13.55
2022-08-19T00:39:00,pst,17.85
2022-08-19T00:40:00,pst,17.87
2022-08-19T00:41:00,pst,26.78
2022-08-19T00:42:00,pst,20.57
2022-08-19T00:43:00,pst,27.88
2022-08-19T00:44:00,pst,27.74
2022-08-19T00:45:00,pst,27.74
2022-08-19T00:46:00,pst,19.22
2022-08-19T00:47:00,pst,18.99
2022-08-19T00:48:00,pst,18.26
2022-08-19T00:49:00,pst,18.25
2022-08-19T00:50:00,pst,18.28
2022-08-19T00:51:00,pst,18.27
2022-08-19T00:52:00,pst,18.24
2022-08-19T00:53:00,pst,18.23
2022-08-19T00:54:00,pst,18.20
2022-08-19T00:55:00,pst,18.23
2022-08-19T00:56:00,pst,18.17
2022-08-19T00:57:00,pst,18.74
2022-08-19T00:58:00,pst,17.80
2022-08-19T00:59:00,pst,17.79
2022-08-19T01:00:00,pst,13.97
2022-08-19T01:01:00,pst,17.97
2022-08-19T01:02:00,pst,28.60
2022-08-19T01:03:00,pst,17.65
2022-08-19T01:04:00,pst,13.63
2022-08-19T01:05:00,pst,17.59
2022-08-19T01:06:00,pst,13.37
2022-08-19T01:07:00,pst,13.37
2022-08-19T01:08:00,pst,13.37
2022-08-19T01:09:00,pst,13.39
2022-08-19T01:10:00,pst,13.39
2022-08-19T01:11:00,pst,13.45
2022-08-19T01:12:00,pst,13.45
2022-08-19T01:13:00,pst,13.49
2022-08-19T01:14:00,pst,13.50
2022-08-19T01:15:00,pst,13.49
2022-08-19T01:16:00,pst,13.49
2022-08-19T01:17:00,pst,13.58
2022-08-19T01:18:00,pst,13.59
2022-08-19T01:19:00,pst,13.60
2022-08-19T01:20:00,pst,13.60
2022-08-19T01:21:00,pst,13.60
2022-08-19T01:22:00,pst,13.50
2022-08-19T01:23:00,pst,13.50
2022-08-19T01:24:00,pst,13.49
2022-08-19T01:25:00,pst,13.33
2022-08-19T01:26:00,pst,13.34
2022-08-19T01:27:00,pst,13.28
2022-08-19T01:28:00,pst,14.46
2022-08-19T01:29:00,pst,14.45
2022-08-19T01:30:00,pst,14.46
2022-08-19T01:31:00,pst,14.47
2022-08-19T01:32:00,pst,14.46
2022-08-19T01:33:00,pst,14.46
2022-08-19T01:34:00,pst,14.45
2022-08-19T01:35:00,pst,14.40
2022-08-19T01:36:00,pst,14.39
2022-08-19T01:37:00,pst,14.40
2022-08-19T01:38:00,pst,14.37
2022-08-19T01:39:00,pst,14.38
2022-08-19T01:40:00,pst,14.32
2022-08-19T01:41:00,pst,14.33
2022-08-19T01:42:00,pst,14.27
2022-08-19T01:43:00,pst,14.03
2022-08-19T01:44:00,pst,14.03
2022-08-19T01:45:00,pst,13.98
2022-08-19T01:46:00,pst,13.97
2022-08-19T01:47:00,pst,13.97
2022-08-19T01:48:00,pst,14.01
2022-08-19T01:49:00,pst,14.00
2022-08-19T01:50:00,pst,14.01
2022-08-19T01:51:00,pst,14.01
2022-08-19T01:52:00,pst,14.00
2022-08-19T01:53:00,pst,14.05
2022-08-19T01:54:00,pst,14.04
2022-08-19T01:55:00,pst,14.05
2022-08-19T01:56:00,pst,14.05
2022-08-19T01:57:00,pst,14.05
2022-08-19T01:58:00,pst,14.05
2022-08-19T01:59:00,pst,14.04
2022-08-19T02:00:00,pst,14.05
2022-08-19T02:01:00,pst,14.06
2022-08-19T02:02:00,pst,14.06
2022-08-19T02:03:00,pst,14.19
2022-08-19T02:04:00,pst,15.02
2022-08-19T02:05:00,pst,14.40
2022-08-19T02:06:00,pst,14.40
2022-08-19T02:07:00,pst,14.33
2022-08-19T02:08:00,pst,14.30
2022-08-19T02:09:00,pst,14.16
2022-08-19T02:10:00,pst,14.23
2022-08-19T02:11:00,pst,14.21
2022-08-19T02:12:00,pst,14.20
2022-08-19T02:13:00,pst,14.22
2022-08-19T02:14:00,pst,14.25
2022-08-19T02:15:00,pst,14.27
2022-08-19T02:16:00,pst,14.25
2022-08-19T02:17:00,pst,14.27
2022-08-19T02:18:00,pst,14.26
2022-08-19T02:19:00,pst,14.25
2022-08-19T02:20:00,pst,14.26
2022-08-19T02:21:00,pst,14.27
2022-08-19T02:22:00,pst,14.24
2022-08-19T02:23:00,pst,14.33
2022-08-19T02:24:00,pst,14.30
2022-08-19T02:25:00,pst,14.30
2022-08-19T02:26:00,pst,14.33
2022-08-19T02:27:00,pst,14.27
2022-08-19T02:28:00,pst,14.27
2022-08-19T02:29:00,pst,14.15
2022-08-19T02:30:00,pst,14.15
2022-08-19T02:31:00,pst,14.18
2022-08-19T02:32:00,pst,14.18
2022-08-19T02:33:00,pst,14.21
2022-08-19T02:34:00,pst,14.18
2022-08-19T02:35:00,pst,14.18
2022-08-19T02:36:00,pst,14.18
2022-08-19T02:37:00,pst,14.18
2022-08-19T02:38:00,pst,14.17
2022-08-19T02:39:00,pst,14.17
2022-08-19T02:40:00,pst,21.85
2022-08-19T02:41:00,pst,14.16
2022-08-19T02:42:00,pst,14.63
2022-08-19T02:43:00,pst,15.31
2022-08-19T02:44:00,pst,15.34
2022-08-19T02:45:00,pst,15.30
2022-08-19T02:46:00,pst,15.30
2022-08-19T02:47:00,pst,15.35
2022-08-19T02:48:00,pst,15.35
2022-08-19T02:49:00,pst,14.75
2022-08-19T02:50:00,pst,14.74
2022-08-19T02:51:00,pst,14.76
2022-08-19T02:52:00,pst,14.76
2022-08-19T02:53:00,pst,14.80
2022-08-19T02:54:00,pst,14.81
2022-08-19T02:55:00,pst,14.87
2022-08-19T02:56:00,pst,15.52
2022-08-19T02:57:00,pst,15.58
2022-08-19T02:58:00,pst,15.62
2022-08-19T02:59:00,pst,14.89
2022-08-19T03:00:00,pst,14.86
2022-08-19T03:01:00,pst,14.80
2022-08-19T03:02:00,pst,14.81
2022-08-19T03:03:00,pst,14.78
2022-08-19T03:04:00,pst,14.78
2022-08-19T03:05:00,pst,14.37
2022-08-19T03:06:00,pst,14.37
2022-08-19T03:07:00,pst,14.36
2022-08-19T03:08:00,pst,14.39
2022-08-19T03:09:00,pst,14.36
2022-08-19T03:10:00,pst,14.38
2022-08-19T03:11:00,pst,23.19
2022-08-19T03:12:00,pst,22.87
2022-08-19T03:13:00,pst,22.75
2022-08-19T03:14:00,pst,22.61
2022-08-19T03:15:00,pst,14.12
2022-08-19T03:16:00,pst,14.11
2022-08-19T03:17:00,pst,14.11
2022-08-19T03:18:00,pst,14.11
2022-08-19T03:19:00,pst,14.11
2022-08-19T03:20:00,pst,14.16
2022-08-19T03:21:00,pst,14.16
2022-08-19T03:22:00,pst,14.08
2022-08-19T03:23:00,pst,14.08
2022-08-19T03:24:00,pst,13.98
2022-08-19T03:25:00,pst,13.99
2022-08-19T03:26:00,pst,14.01
2022-08-19T03:27:00,pst,14.16
2022-08-19T03:28:00,pst,14.06
2022-08-19T03:29:00,pst,14.20
2022-08-19T03:30:00,pst,14.22
2022-08-19T03:31:00,pst,14.14
2022-08-19T03:32:00,pst,14.15
2022-08-19T03:33:00,pst,14.13
2022-08-19T03:34:00,pst,14.12
2022-08-19T03:35:00,pst,14.12
2022-08-19T03:36:00,pst,14.11
2022-08-19T03:37:00,pst,14.12
2022-08-19T03:38:00,pst,14.12
2022-08-19T03:39:00,pst,14.18
2022-08-19T03:40:00,pst,14.16
2022-08-19T03:41:00,pst,14.17
2022-08-19T03:42:00,pst,14.17
2022-08-19T03:43:00,pst,14.15
2022-08-19T03:44:00,pst,14.16
2022-08-19T03:45:00,pst,14.16
2022-08-19T03:46:00,pst,14.15
2022-08-19T03:47:00,pst,14.16
2022-08-19T03:48:00,pst,14.15
2022-08-19T03:49:00,pst,14.16
2022-08-19T03:50:00,pst,14.16
2022-08-19T03:51:00,pst,14.17
2022-08-19T03:52:00,pst,14.18
2022-08-19T03:53:00,pst,14.16
2022-08-19T03:54:00,pst,14.15
2022-08-19T03:55:00,pst,14.16
2022-08-19T03:56:00,pst,14.26
2022-08-19T03:57:00,pst,14.15
2022-08-19T03:58:00,pst,14.14
2022-08-19T03:59:00,pst,14.17
2022-08-19T04:00:00,pst,14.15
2022-08-19T04:01:00,pst,14.14
2022-08-19T04:02:00,pst,14.15
2022-08-19T04:03:00,pst,14.12
2022-08-19T04:04:00,pst,14.13
2022-08-19T04:05:00,pst,14.10
2022-08-19T04:06:00,pst,14.10
2022-08-19T04:07:00,pst,14.10
2022-08-19T04:08:00,pst,14.11
2022-08-19T04:09:00,pst,14.07
2022-08-19T04:10:00,pst,14.08
2022-08-19T04:11:00,pst,14.21
2022-08-19T04:12:00,pst,14.23
2022-08-19T04:13:00,pst,14.23
2022-08-19T04:14:00,pst,14.16
2022-08-19T04:15:00,pst,14.15
2022-08-19T04:16:00,pst,14.15
2022-08-19T04:17:00,pst,14.15
2022-08-19T04:18:00,pst,14.22
2022-08-19T04:19:00,pst,14.23
2022-08-19T04:20:00,pst,14.21
2022-08-19T04:21:00,pst,14.23
2022-08-19T04:22:00,pst,14.14
2022-08-19T04:23:00,pst,14.16
2022-08-19T04:24:00,pst,14.15
2022-08-19T04:25:00,pst,14.18
2022-08-19T04:26:00,pst,14.32
2022-08-19T04:27:00,pst,14.30
2022-08-19T04:28:00,pst,14.18
2022-08-19T04:29:00,pst,14.18
2022-08-19T04:30:00,pst,14.19
2022-08-19T04:31:00,pst,14.17
2022-08-19T04:32:00,pst,14.18
2022-08-19T04:33:00,pst,14.15
2022-08-19T04:34:00,pst,14.16
2022-08-19T04:35:00,pst,14.13
2022-08-19T04:36:00,pst,14.12
2022-08-19T04:37:00,pst,14.13
2022-08-19T04:38:00,pst,14.13
2022-08-19T04:39:00,pst,14.09
2022-08-19T04:40:00,pst,14.08
2022-08-19T04:41:00,pst,14.09
2022-08-19T04:42:00,pst,14.07
2022-08-19T04:43:00,pst,14.06
2022-08-19T04:44:00,pst,14.07
2022-08-19T04:45:00,pst,14.05
2022-08-19T04:46:00,pst,14.04
2022-08-19T04:47:00,pst,14.06
2022-08-19T04:48:00,pst,14.05
2022-08-19T04:49:00,pst,14.05
2022-08-19T04:50:00,pst,14.05
2022-08-19T04:51:00,pst,14.06
2022-08-19T04:52:00,pst,14.04
2022-08-19T04:53:00,pst,14.03
2022-08-19T04:54:00,pst,14.03
2022-08-19T04:55:00,pst,14.02
2022-08-19T04:56:00,pst,14.02
2022-08-19T04:57:00,pst,14.01
2022-08-19T04:58:00,pst,14.02
2022-08-19T04:59:00,pst,13.99
2022-08-19T05:00:00,pst,14.00
2022-08-19T05:01:00,pst,13.99
2022-08-19T05:02:00,pst,13.98
2022-08-19T05:03:00,pst,13.97
2022-08-19T05:04:00,pst,13.96
2022-08-19T05:05:00,pst,13.98
2022-08-19T05:06:00,pst,13.87
2022-08-19T05:07:00,pst,13.86
2022-08-19T05:08:00,pst,13.87
2022-08-19T05:09:00,pst,13.86
2022-08-19T05:10:00,pst,13.99
2022-08-19T05:11:00,pst,14.00
2022-08-19T05:12:00,pst,13.99
2022-08-19T05:13:00,pst,14.03
2022-08-19T05:14:00,pst,14.04
2022-08-19T05:15:00,pst,14.05
2022-08-19T05:16:00,pst,14.04
2022-08-19T05:17:00,pst,14.03
2022-08-19T05:18:00,pst,14.02
2022-08-19T05:19:00,pst,14.02
2022-08-19T05:20:00,pst,14.03
2022-08-19T05:21:00,pst,14.18
2022-08-19T05:22:00,pst,14.16
2022-08-19T05:23:00,pst,14.15
2022-08-19T05:24:00,pst,14.16
2022-08-19T05:25:00,pst,14.17
2022-08-19T05:26:00,pst,14.15
2022-08-19T05:27:00,pst,14.04
2022-08-19T05:28:00,pst,14.04
2022-08-19T05:29:00,pst,14.03
2022-08-19T05:30:00,pst,14.03
2022-08-19T05:31:00,pst,14.02
2022-08-19T05:32:00,pst,14.03
2022-08-19T05:33:00,pst,14.00
2022-08-19T05:34:00,pst,14.01
2022-08-19T05:35:00,pst,14.00
2022-08-19T05:36:00,pst,14.00
2022-08-19T05:37:00,pst,13.94
2022-08-19T05:38:00,pst,13.96
2022-08-19T05:39:00,pst,13.95
2022-08-19T05:40:00,pst,13.94
2022-08-19T05:41:00,pst,13.95
2022-08-19T05:42:00,pst,13.95
2022-08-19T05:43:00,pst,13.95
2022-08-19T05:44:00,pst,13.95
2022-08-19T05:45:00,pst,13.94
2022-08-19T05:46:00,pst,13.93
2022-08-19T05:47:00,pst,13.94
2022-08-19T05:48:00,pst,13.94
2022-08-19T05:49:00,pst,13.94
2022-08-19T05:50:00,pst,14.01
2022-08-19T05:51:00,pst,14.01
2022-08-19T05:52:00,pst,14.00
2022-08-19T05:53:00,pst,8.06
2022-08-19T05:54:00,pst,8.06
2022-08-19T05:55:00,pst,8.06
2022-08-19T05:56:00,pst,8.06
2022-08-19T05:57:00,pst,8.06
2022-08-19T05:58:00,pst,8.08
2022-08-19T05:59:00,pst,7.94
2022-08-19T06:00:00,pst,7.94
2022-08-19T06:01:00,pst,8.00
2022-08-19T06:02:00,pst,8.06
2022-08-19T06:03:00,pst,9.22
2022-08-19T06:04:00,pst,9.22
2022-08-19T06:05:00,pst,9.25
2022-08-19T06:06:00,pst,9.24
2022-08-19T06:07:00,pst,9.13
2022-08-19T06:08:00,pst,9.14
2022-08-19T06:09:00,pst,18.13
2022-08-19T06:10:00,pst,17.38
2022-08-19T06:11:00,pst,17.24
2022-08-19T06:12:00,pst,17.12
2022-08-19T06:13:00,pst,8.65
2022-08-19T06:14:00,pst,8.64
2022-08-19T06:15:00,pst,8.79
2022-08-19T06:16:00,pst,8.77
2022-08-19T06:17:00,pst,8.83
2022-08-19T06:18:00,pst,8.85
2022-08-19T06:19:00,pst,9.43
2022-08-19T06:20:00,pst,9.44
2022-08-19T06:21:00,pst,9.46
2022-08-19T06:22:00,pst,8.40
2022-08-19T06:23:00,pst,8.43
2022-08-19T06:24:00,pst,8.42
2022-08-19T06:25:00,pst,8.42
2022-08-19T06:26:00,pst,8.46
2022-08-19T06:27:00,pst,8.15
2022-08-19T06:28:00,pst,8.08
2022-08-19T06:29:00,pst,8.15
2022-08-19T06:30:00,pst,8.18
2022-08-19T06:31:00,pst,8.05
2022-08-19T06:32:00,pst,8.07
2022-08-19T06:33:00,pst,8.05
2022-08-19T06:34:00,pst,8.06
2022-08-19T06:35:00,pst,8.04
2022-08-19T06:36:00,pst,8.35
2022-08-19T06:37:00,pst,8.12
2022-08-19T06:38:00,pst,8.09
2022-08-19T06:39:00,pst,8.08
2022-08-19T06:40:00,pst,8.09
2022-08-19T06:41:00,pst,8.11
2022-08-19T06:42:00,pst,8.10
2022-08-19T06:43:00,pst,8.10
2022-08-19T06:44:00,pst,8.18
2022-08-19T06:45:00,pst,8.10
2022-08-19T06:46:00,pst,8.13
2022-08-19T06:47:00,pst,8.07
2022-08-19T06:48:00,pst,8.12
2022-08-19T06:49:00,pst,8.11
2022-08-19T06:50:00,pst,8.04
2022-08-19T06:51:00,pst,8.05
2022-08-19T06:52:00,pst,8.04
2022-08-19T06:53:00,pst,8.05
2022-08-19T06:54:00,pst,8.01
2022-08-19T06:55:00,pst,8.08
2022-08-19T06:56:00,pst,8.16
2022-08-19T06:57:00,pst,8.14
2022-08-19T06:58:00,pst,8.14
2022-08-19T06:59:00,pst,8.15
2022-08-19T07:00:00,pst,8.01
2022-08-19T07:01:00,pst,8.01
2022-08-19T07:02:00,pst,7.99
2022-08-19T07:03:00,pst,7.98
2022-08-19T07:04:00,pst,8.01
2022-08-19T07:05:00,pst,8.02
2022-08-19T07:06:00,pst,8.02
2022-08-19T07:07:00,pst,8.00
2022-08-19T07:08:00,pst,8.03
2022-08-19T07:09:00,pst,8.01
2022-08-19T07:10:00,pst,8.15
2022-08-19T07:11:00,pst,8.14
2022-08-19T07:12:00,pst,8.07
2022-08-19T07:13:00,pst,8.07
2022-08-19T07:14:00,pst,7.99
2022-08-19T07:15:00,pst,8.06
2022-08-19T07:16:00,pst,8.24
2022-08-19T07:17:00,pst,8.23
2022-08-19T07:18:00,pst,20.09
2022-08-19T07:19:00,pst,8.23
2022-08-19T07:20:00,pst,8.26
2022-08-19T07:21:00,pst,8.31
2022-08-19T07:22:00,pst,8.46
2022-08-19T07:23:00,pst,8.40
2022-08-19T07:24:00,pst,8.42
2022-08-19T07:25:00,pst,8.77
2022-08-19T07:26:00,pst,9.63
2022-08-19T07:27:00,pst,9.59
2022-08-19T07:28:00,pst,8.42
2022-08-19T07:29:00,pst,8.32
2022-08-19T07:30:00,pst,7.75
2022-08-19T07:31:00,pst,7.96
2022-08-19T07:32:00,pst,7.54
2022-08-19T07:33:00,pst,7.58
2022-08-19T07:34:00,pst,7.63
2022-08-19T07:35:00,pst,7.68
2022-08-19T07:36:00,pst,7.52
2022-08-19T07:37:00,pst,8.44
2022-08-19T07:38:00,pst,8.22
2022-08-19T07:39:00,pst,7.24
2022-08-19T07:40:00,pst,7.32
2022-08-19T07:41:00,pst,7.39
2022-08-19T07:42:00,pst,7.29
2022-08-19T07:43:00,pst,7.18
2022-08-19T07:44:00,pst,7.02
2022-08-19T07:45:00,pst,7.15
2022-08-19T07:46:00,pst,7.16
2022-08-19T07:47:00,pst,7.31
2022-08-19T07:48:00,pst,7.42
2022-08-19T07:49:00,pst,7.44
2022-08-19T07:50:00,pst,7.29
2022-08-19T07:51:00,pst,7.10
2022-08-19T07:52:00,pst,7.21
2022-08-19T07:53:00,pst,10.12
2022-08-19T07:54:00,pst,11.35
2022-08-19T07:55:00,pst,11.39
2022-08-19T07:56:00,pst,11.35
2022-08-19T07:57:00,pst,11.23
2022-08-19T07:58:00,pst,11.41
2022-08-19T07:59:00,pst,11.46
2022-08-19T08:00:00,pst,11.38
2022-08-19T08:01:00,pst,11.32
2022-08-19T08:02:00,pst,11.46
2022-08-19T08:03:00,pst,11.43
2022-08-19T08:04:00,pst,11.34
2022-08-19T08:05:00,pst,11.22
2022-08-19T08:06:00,pst,10.99
2022-08-19T08:07:00,pst,11.16
2022-08-19T08:08:00,pst,11.12
2022-08-19T08:09:00,pst,11.27
2022-08-19T08:10:00,pst,11.07
2022-08-19T08:11:00,pst,11.13
2022-08-19T08:12:00,pst,11.30
2022-08-19T08:13:00,pst,11.39
2022-08-19T08:14:00,pst,11.47
2022-08-19T08:15:00,pst,11.46
2022-08-19T08:16:00,pst,11.51
2022-08-19T08:17:00,pst,11.45
2022-08-19T08:18:00,pst,7.15
2022-08-19T08:19:00,pst,7.17
2022-08-19T08:20:00,pst,11.12
2022-08-19T08:21:00,pst,11.21
2022-08-19T08:22:00,pst,23.20
2022-08-19T08:23:00,pst,11.46
2022-08-19T08:24:00,pst,7.53
2022-08-19T08:25:00,pst,7.22
2022-08-19T08:26:00,pst,11.10
2022-08-19T08:27:00,pst,11.14
2022-08-19T08:28:00,pst,11.61
2022-08-19T08:29:00,pst,11.44
2022-08-19T08:30:00,pst,11.38
2022-08-19T08:31:00,pst,15.24
2022-08-19T08:32:00,pst,15.30
2022-08-19T08:33:00,pst,11.35
2022-08-19T08:34:00,pst,11.52
2022-08-19T08:35:00,pst,11.48
2022-08-19T08:36:00,pst,15.31
2022-08-19T08:37:00,pst,15.29
2022-08-19T08:38:00,pst,11.36
2022-08-19T08:39:00,pst,11.48
2022-08-19T08:40:00,pst,11.93
2022-08-19T08:41:00,pst,16.47
2022-08-19T08:42:00,pst,16.50
2022-08-19T08:43:00,pst,12.51
2022-08-19T08:44:00,pst,12.50
2022-08-19T08:45:00,pst,15.79
2022-08-19T08:46:00,pst,15.71
2022-08-19T08:47:00,pst,15.73
2022-08-19T08:48:00,pst,11.85
2022-08-19T08:49:00,pst,11.85
2022-08-19T08:50:00,pst,11.84
2022-08-19T08:51:00,pst,11.92
2022-08-19T08:52:00,pst,11.92
2022-08-19T08:53:00,pst,20.40
2022-08-19T08:54:00,pst,20.81
2022-08-19T08:55:00,pst,20.74
2022-08-19T08:56:00,pst,11.25
2022-08-19T08:57:00,pst,11.23
2022-08-19T08:58:00,pst,11.19
2022-08-19T08:59:00,pst,11.23
2022-08-19T09:00:00,pst,11.02
2022-08-19T09:01:00,pst,10.84
2022-08-19T09:02:00,pst,10.91
2022-08-19T09:03:00,pst,11.04
2022-08-19T09:04:00,pst,7.06
2022-08-19T09:05:00,pst,6.99
2022-08-19T09:06:00,pst,11.01
2022-08-19T09:07:00,pst,11.01
2022-08-19T09:08:00,pst,7.05
2022-08-19T09:09:00,pst,7.03
2022-08-19T09:10:00,pst,14.62
2022-08-19T09:11:00,pst,11.27
2022-08-19T09:12:00,pst,6.71
2022-08-19T09:13:00,pst,6.90
2022-08-19T09:14:00,pst,6.85
2022-08-19T09:15:00,pst,6.83
2022-08-19T09:16:00,pst,7.06
2022-08-19T09:17:00,pst,6.85
2022-08-19T09:18:00,pst,6.83
2022-08-19T09:19:00,pst,6.79
2022-08-19T09:20:00,pst,6.80
2022-08-19T09:21:00,pst,6.75
2022-08-19T09:22:00,pst,6.75
2022-08-19T09:23:00,pst,6.77
2022-08-19T09:24:00,pst,6.81
2022-08-19T09:25:00,pst,6.80
2022-08-19T09:26:00,pst,6.77
2022-08-19T09:27:00,pst,6.77
2022-08-19T09:28:00,pst,12.06
2022-08-19T09:29:00,pst,11.32
2022-08-19T09:30:00,pst,21.73
2022-08-19T09:31:00,pst,11.31
2022-08-19T09:32:00,pst,11.24
2022-08-19T09:33:00,pst,11.17
2022-08-19T09:34:00,pst,7.21
2022-08-19T09:35:00,pst,11.15
2022-08-19T09:36:00,pst,11.10
2022-08-19T09:37:00,pst,11.11
2022-08-19T09:38:00,pst,11.00
2022-08-19T09:39:00,pst,7.56
2022-08-19T09:40:00,pst,11.54
2022-08-19T09:41:00,pst,11.47
2022-08-19T09:42:00,pst,11.60
2022-08-19T09:43:00,pst,11.59
2022-08-19T09:44:00,pst,11.73
2022-08-19T09:45:00,pst,11.66
2022-08-19T09:46:00,pst,23.08
2022-08-19T09:47:00,pst,11.66
2022-08-19T09:48:00,pst,8.06
2022-08-19T09:49:00,pst,11.67
2022-08-19T09:50:00,pst,7.70
2022-08-19T09:51:00,pst,11.56
2022-08-19T09:52:00,pst,7.12
2022-08-19T09:53:00,pst,11.03
2022-08-19T09:54:00,pst,7.80
2022-08-19T09:55:00,pst,12.21
2022-08-19T09:56:00,pst,8.27
2022-08-19T09:57:00,pst,12.21
2022-08-19T09:58:00,pst,20.33
2022-08-19T09:59:00,pst,7.67
2022-08-19T10:00:00,pst,7.70
2022-08-19T10:01:00,pst,7.64
2022-08-19T10:02:00,pst,7.62
2022-08-19T10:03:00,pst,7.94
2022-08-19T10:04:00,pst,7.79
2022-08-19T10:05:00,pst,7.79
2022-08-19T10:06:00,pst,8.16
2022-08-19T10:07:00,pst,8.20
2022-08-19T10:08:00,pst,8.80
2022-08-19T10:09:00,pst,7.69
2022-08-19T10:10:00,pst,7.73
2022-08-19T10:11:00,pst,7.68
2022-08-19T10:12:00,pst,7.74
2022-08-19T10:13:00,pst,7.68
2022-08-19T10:14:00,pst,7.70
2022-08-19T10:15:00,pst,7.71
2022-08-19T10:16:00,pst,7.60
2022-08-19T10:17:00,pst,8.15
2022-08-19T10:18:00,pst,8.14
2022-08-19T10:19:00,pst,8.14
2022-08-19T10:20:00,pst,7.60
2022-08-19T10:21:00,pst,7.54
2022-08-19T10:22:00,pst,6.97
2022-08-19T10:23:00,pst,6.94
2022-08-19T10:24:00,pst,7.10
2022-08-19T10:25:00,pst,7.10
2022-08-19T10:26:00,pst,6.94
2022-08-19T10:27:00,pst,6.92
2022-08-19T10:28:00,pst,6.79
2022-08-19T10:29:00,pst,6.70
2022-08-19T10:30:00,pst,6.74
2022-08-19T10:31:00,pst,6.91
2022-08-19T10:32:00,pst,6.70
2022-08-19T10:33:00,pst,8.02
2022-08-19T10:34:00,pst,6.81
2022-08-19T10:35:00,pst,6.96
2022-08-19T10:36:00,pst,6.76
2022-08-19T10:37:00,pst,6.71
2022-08-19T10:38:00,pst,6.60
2022-08-19T10:39:00,pst,6.65
2022-08-19T10:40:00,pst,6.68
2022-08-19T10:41:00,pst,6.63
2022-08-19T10:42:00,pst,6.69
2022-08-19T10:43:00,pst,6.73
2022-08-19T10:44:00,pst,7.02
2022-08-19T10:45:00,pst,6.91
2022-08-19T10:46:00,pst,6.89
2022-08-19T10:47:00,pst,6.88
2022-08-19T10:48:00,pst,6.89
2022-08-19T10:49:00,pst,6.78
2022-08-19T10:50:00,pst,10.92
2022-08-19T10:51:00,pst,10.74
2022-08-19T10:52:00,pst,10.74
2022-08-19T10:53:00,pst,10.75
2022-08-19T10:54:00,pst,10.72
2022-08-19T10:55:00,pst,10.95
2022-08-19T10:56:00,pst,10.78
2022-08-19T10:57:00,pst,10.88
2022-08-19T10:58:00,pst,10.79
2022-08-19T10:59:00,pst,10.83
2022-08-19T11:00:00,pst,10.86
2022-08-19T11:01:00,pst,10.77
2022-08-19T11:02:00,pst,11.08
2022-08-19T11:03:00,pst,11.06
2022-08-19T11:04:00,pst,11.04
2022-08-19T11:05:00,pst,11.01
2022-08-19T11:06:00,pst,11.14
2022-08-19T11:07:00,pst,11.04
2022-08-19T11:08:00,pst,11.03
2022-08-19T11:09:00,pst,10.92
2022-08-19T11:10:00,pst,11.07
2022-08-19T11:11:00,pst,11.16
2022-08-19T11:12:00,pst,11.35
2022-08-19T11:13:00,pst,11.37
2022-08-19T11:14:00,pst,11.41
2022-08-19T11:15:00,pst,11.15
2022-08-19T11:16:00,pst,20.56
2022-08-19T11:17:00,pst,19.98
2022-08-19T11:18:00,pst,19.64
2022-08-19T11:19:00,pst,19.81
2022-08-19T11:20:00,pst,19.83
2022-08-19T11:21:00,pst,20.23
2022-08-19T11:22:00,pst,19.72
2022-08-19T11:23:00,pst,12.41
2022-08-19T11:24:00,pst,16.79
2022-08-19T11:25:00,pst,20.40
2022-08-19T11:26:00,pst,20.31
2022-08-19T11:27:00,pst,23.98
2022-08-19T11:28:00,pst,12.15
2022-08-19T11:29:00,pst,8.39
2022-08-19T11:30:00,pst,16.35
2022-08-19T11:31:00,pst,21.31
2022-08-19T11:32:00,pst,21.16
2022-08-19T11:33:00,pst,9.33
2022-08-19T11:34:00,pst,9.34
2022-08-19T11:35:00,pst,12.85
2022-08-19T11:36:00,pst,17.18
2022-08-19T11:37:00,pst,21.30
2022-08-19T11:38:00,pst,22.46
2022-08-19T11:39:00,pst,26.64
2022-08-19T11:40:00,pst,26.42
2022-08-19T11:41:00,pst,37.59
2022-08-19T11:42:00,pst,22.61
2022-08-19T11:43:00,pst,21.96
2022-08-19T11:44:00,pst,25.78
2022-08-19T11:45:00,pst,25.75
2022-08-19T11:46:00,pst,21.87
2022-08-19T11:47:00,pst,21.83
2022-08-19T11:48:00,pst,21.84
2022-08-19T11:49:00,pst,21.80
2022-08-19T11:50:00,pst,21.48
2022-08-19T11:51:00,pst,21.21
2022-08-19T11:52:00,pst,22.15
2022-08-19T11:53:00,pst,21.50
2022-08-19T11:54:00,pst,12.86
2022-08-19T11:55:00,pst,13.06
2022-08-19T11:56:00,pst,14.13
2022-08-19T11:57:00,pst,12.94
2022-08-19T11:58:00,pst,12.89
2022-08-19T11:59:00,pst,12.82
2022-08-19T12:00:00,pst,20.29
2022-08-19T12:01:00,pst,13.79
2022-08-19T12:02:00,pst,10.70
2022-08-19T12:03:00,pst,10.56
2022-08-19T12:04:00,pst,16.05
2022-08-19T12:05:00,pst,13.13
2022-08-19T12:06:00,pst,13.15
2022-08-19T12:07:00,pst,13.21
2022-08-19T12:08:00,pst,13.07
2022-08-19T12:09:00,pst,13.00
2022-08-19T12:10:00,pst,12.11
2022-08-19T12:11:00,pst,12.06
2022-08-19T12:12:00,pst,11.93
2022-08-19T12:13:00,pst,8.75
2022-08-19T12:14:00,pst,12.85
2022-08-19T12:15:00,pst,12.58
2022-08-19T12:16:00,pst,11.83
2022-08-19T12:17:00,pst,8.17
2022-08-19T12:18:00,pst,11.54
2022-08-19T12:19:00,pst,11.53
2022-08-19T12:20:00,pst,7.51
2022-08-19T12:21:00,pst,11.52
2022-08-19T12:22:00,pst,11.13
2022-08-19T12:23:00,pst,6.81
2022-08-19T12:24:00,pst,6.54
2022-08-19T12:25:00,pst,10.45
2022-08-19T12:26:00,pst,6.54
2022-08-19T12:27:00,pst,6.55
2022-08-19T12:28:00,pst,6.37
2022-08-19T12:29:00,pst,10.33
2022-08-19T12:30:00,pst,6.38
2022-08-19T12:31:00,pst,6.32
2022-08-19T12:32:00,pst,5.94
2022-08-19T12:33:00,pst,5.92
2022-08-19T12:34:00,pst,9.69
2022-08-19T12:35:00,pst,5.84
2022-08-19T12:36:00,pst,5.77
2022-08-19T12:37:00,pst,5.81
2022-08-19T12:38:00,pst,5.87
2022-08-19T12:39:00,pst,5.84
2022-08-19T12:40:00,pst,5.83
2022-08-19T12:41:00,pst,5.85
2022-08-19T12:42:00,pst,5.85
2022-08-19T12:43:00,pst,5.84
2022-08-19T12:44:00,pst,5.91
2022-08-19T12:45:00,pst,5.98
2022-08-19T12:46:00,pst,5.98
2022-08-19T12:47:00,pst,5.92
2022-08-19T12:48:00,pst,5.93
2022-08-19T12:49:00,pst,5.93
2022-08-19T12:50:00,pst,5.91
2022-08-19T12:51:00,pst,5.95
2022-08-19T12:52:00,pst,5.94
2022-08-19T12:53:00,pst,6.05
2022-08-19T12:54:00,pst,6.02
2022-08-19T12:55:00,pst,6.03
2022-08-19T12:56:00,pst,16.95
2022-08-19T12:57:00,pst,6.09
2022-08-19T12:58:00,pst,6.10
2022-08-19T12:59:00,pst,5.98
2022-08-19T13:00:00,pst,5.97
2022-08-19T13:01:00,pst,5.96
2022-08-19T13:02:00,pst,5.94
2022-08-19T13:03:00,pst,5.95
2022-08-19T13:04:00,pst,5.95
2022-08-19T13:05:00,pst,5.95
2022-08-19T13:06:00,pst,17.81
2022-08-19T13:07:00,pst,5.96
2022-08-19T13:08:00,pst,5.96
2022-08-19T13:09:00,pst,5.98
2022-08-19T13:10:00,pst,6.04
2022-08-19T13:11:00,pst,6.07
2022-08-19T13:12:00,pst,6.07
2022-08-19T13:13:00,pst,6.14
2022-08-19T13:14:00,pst,6.07
2022-08-19T13:15:00,pst,5.96
2022-08-19T13:16:00,pst,5.91
2022-08-19T13:17:00,pst,5.87
2022-08-19T13:18:00,pst,5.88
2022-08-19T13:19:00,pst,5.82
2022-08-19T13:20:00,pst,5.75
2022-08-19T13:21:00,pst,5.77
2022-08-19T13:22:00,pst,5.75
2022-08-19T13:23:00,pst,5.83
2022-08-19T13:24:00,pst,5.90
2022-08-19T13:25:00,pst,5.85
2022-08-19T13:26:00,pst,5.82